DW8923 Weather Reports


time (UTC)temp
C
wind
direction
speed
KPH
gust
KPH
rain 1hr
cm
rain 24hr
cm
rain mn
cm
humidity
%
barometer
mb
20260507054534 15 305 3.2 12.9 0.00 0.00 0.00 85 1014.5
20260507053024 15 22 3.2 12.9 0.00 0.00 0.00 85 1014.3
20260507051523 15 355 3.2 8.0 0.00 0.00 0.00 85 1014.5
20260507050026 15 24 3.2 9.7 0.00 0.00 0.00 85 1014.3
20260507044521 15 350 3.2 16.1 0.00 0.00 0.00 84 1014.2
20260507043024 15 17 3.2 9.7 0.00 0.00 0.00 84 1014.4
20260507041519 15 340 3.2 9.7 0.00 0.00 0.00 85 1014.5
20260507040017 15 327 0.0 17.7 0.00 0.00 0.00 85 1014.5
20260507034516 15 324 0.0 9.7 0.00 0.00 0.00 85 1014.2
20260507033015 15 342 0.0 8.0 0.00 0.00 0.00 86 1014.2
20260507031513 15 355 0.0 9.7 0.00 0.00 0.00 86 1013.9
20260507030013 15 343 0.0 12.9 0.00 0.00 0.00 87 1014.0
20260507024513 15 24 4.8 12.9 0.00 0.00 0.00 87 1014.1
20260507023009 15 293 1.6 12.9 0.00 0.00 0.00 87 1013.5
20260507021508 15 312 0.0 4.8 0.00 0.00 0.00 86 1013.5
20260507020006 15 315 1.6 9.7 0.00 0.00 0.00 86 1013.3
20260507014504 15 329 0.0 9.7 0.00 0.00 0.00 86 1012.9
20260507013006 15 326 1.6 8.0 0.00 0.00 0.00 86 1012.6
20260507011601 15 300 1.6 6.4 0.00 0.00 0.00 86 1012.5
20260507010104 15 339 0.0 8.0 0.00 0.00 0.00 85 1012.1
20260507004606 16 299 1.6 6.4 0.00 0.00 0.00 85 1011.8
20260507003058 16 313 1.6 12.9 0.00 0.00 0.00 85 1011.7
20260507001559 16 319 0.0 9.7 0.00 0.00 0.00 84 1011.7
20260507000058 16 294 1.6 11.3 0.00 0.00 0.00 84 1011.7
20260506234557 16 320 0.0 16.1 0.00 0.00 0.00 84 1011.4
20260506233110 16 327 0.0 12.9 0.00 0.00 0.00 84 1011.7
20260506231601 16 344 0.0 14.5 0.00 0.00 0.00 84 1011.7
20260506230056 16 288 3.2 16.1 0.00 0.00 0.00 83 1011.5
20260506224555 16 327 1.6 12.9 0.00 0.00 0.00 85 1011.4
20260506223055 15 302 4.8 9.7 0.00 0.00 0.00 85 1011.1
20260506221553 15 302 3.2 12.9 0.00 0.00 0.00 86 1011.2
20260506220053 15 306 4.8 16.1 0.00 0.00 0.00 86 1011.4
20260506214554 15 290 3.2 9.7 0.00 0.00 0.00 86 1011.1
20260506213110 15 327 4.8 17.7 0.00 0.00 0.00 85 1011.3
20260506211549 15 49 3.2 16.1 0.00 0.00 0.00 85 1011.4
20260506210048 15 304 6.4 17.7 0.00 0.00 0.00 84 1011.5
20260506204547 15 302 1.6 14.5 0.00 0.00 0.00 85 1011.5
20260506203047 15 289 4.8 22.5 0.00 0.00 0.00 85 1011.6
20260506201544 15 322 4.8 20.9 0.00 0.00 0.00 85 1011.4
20260506200042 15 312 6.4 19.3 0.00 0.00 0.00 84 1011.5
20260506194541 16 292 6.4 20.9 0.00 0.00 0.00 83 1011.3
20260506193040 16 320 6.4 19.3 0.00 0.00 0.00 83 1011.4
20260506191541 17 347 6.4 17.7 0.00 0.00 0.00 82 1011.5
20260506190039 17 246 4.8 14.5 0.00 0.00 0.00 83 1011.3
20260506184548 18 302 3.2 17.7 0.00 0.00 0.00 83 1011.1
20260506183051 18 301 4.8 22.5 0.00 0.00 0.00 81 1011.1
20260506181602 20 271 6.4 17.7 0.00 0.00 0.00 79 1010.9
20260506180036 20 308 1.6 14.5 0.00 0.00 0.00 80 1010.8
20260506174534 19 342 4.8 16.1 0.00 0.00 0.00 81 1010.6
20260506173052 19 98 1.6 8.0 0.00 0.00 0.00 83 1010.4
20260506171533 18 349 3.2 12.9 0.00 0.00 0.00 82 1010.3
20260506170035 18 12 4.8 16.1 0.00 0.00 0.00 84 1010.4
20260506164536 17 85 4.8 14.5 0.00 0.00 0.00 87 1010.2
20260506163030 16 339 3.2 12.9 0.00 0.00 0.00 92 1010.9
20260506161529 15 21 4.8 14.5 0.00 0.00 0.00 92 1010.5
20260506160029 15 315 3.2 17.7 0.00 0.00 0.00 92 1011.7
20260506154526 15 34 8.0 20.9 0.00 0.00 0.00 91 1012.1
20260506153023 16 287 4.8 27.4 0.00 0.00 0.00 92 1012.0
20260506151518 16 305 4.8 24.1 0.00 0.00 0.00 92 1012.0
20260506150015 17 312 3.2 17.7 0.00 0.00 0.00 92 1010.9
20260506144516 17 306 3.2 22.5 0.00 0.00 0.00 91 1009.9
20260506143009 18 329 6.4 20.9 0.00 0.00 0.00 90 1009.9
20260506141502 18 322 3.2 16.1 0.00 0.00 0.00 90 1009.3
20260506140106 19 55 1.6 17.7 0.00 0.00 0.00 89 1008.8
20260506134555 21 292 3.2 17.7 0.00 0.00 0.00 89 1008.9
20260506133052 22 69 1.6 4.8 0.00 0.00 0.00 94 1008.3
20260506131555 22 46 0.0 3.2 0.00 0.00 0.00 94 1008.2
20260506130048 22 15 0.0 4.8 0.00 0.00 0.00 94 1007.8
20260506124550 22 291 0.0 3.2 0.00 0.00 0.00 93 1007.8
20260506123047 22 200 0.0 0.0 0.00 0.00 0.00 93 1007.6
20260506121543 22 152 0.0 0.0 0.00 0.00 0.00 92 1007.4
20260506120043 22 152 0.0 0.0 0.00 0.00 0.00 92 1007.3
20260506114540 22 152 0.0 0.0 0.00 0.00 0.00 92 1007.2
20260506113042 23 152 0.0 0.0 0.00 0.00 0.00 92 1007.2
20260506111538 23 152 0.0 0.0 0.00 0.00 0.00 92 1007.3
20260506110037 23 199 0.0 4.8 0.00 0.00 0.00 92 1007.3
20260506104536 23 150 0.0 4.8 0.00 0.00 0.00 91 1007.3
20260506103034 23 148 1.6 4.8 0.00 0.00 0.00 91 1007.2
20260506101532 23 175 0.0 8.0 0.00 0.00 0.00 91 1007.0
20260506100034 23 146 1.6 8.0 0.00 0.00 0.00 91 1006.8
20260506094529 23 166 3.2 6.4 0.00 0.00 0.00 90 1006.7
20260506093027 23 127 3.2 8.0 0.00 0.00 0.00 90 1006.5
20260506091526 23 119 3.2 8.0 0.00 0.00 0.00 89 1006.4
20260506090029 23 161 3.2 9.7 0.00 0.00 0.00 89 1006.4
20260506084525 23 136 1.6 8.0 0.00 0.00 0.00 89 1006.2
20260506083024 23 166 0.0 12.9 0.00 0.00 0.00 89 1006.3
20260506081523 23 159 4.8 16.1 0.00 0.00 0.00 89 1006.3
20260506073020 23 143 4.8 17.7 0.00 0.00 0.00 89 1006.3
20260506071519 23 177 6.4 17.7 0.00 0.00 0.00 89 1006.4
20260506061513 23 188 8.0 14.5 0.00 0.00 0.00 89 1006.2